Time,TemperatureF,DewpointF,PressureIn,WindDirection,WindDirectionDegrees,WindSpeedMPH,WindSpeedGustMPH,Humidity,HourlyPrecipIn,Conditions,Clouds,dailyrainin,SoftwareType,DateUTC
2013-06-12 00:02:00,56.0,45.0,30.01,SW,232,13.0,-999.0,67,-99.99,,,-99.99,,2013-06-12 04:02:00,
2013-06-12 00:12:00,56.0,45.0,30.01,SW,232,13.0,-999.0,67,-99.99,,,-99.99,,2013-06-12 04:12:00,
2013-06-12 00:22:00,56.0,45.0,30.01,SSW,192,12.0,-999.0,67,-99.99,,,-99.99,,2013-06-12 04:22:00,
2013-06-12 00:33:00,55.0,45.0,30.02,SW,231,12.0,-999.0,69,-99.99,,,-99.99,,2013-06-12 04:33:00,
2013-06-12 00:42:00,55.0,45.0,30.02,SW,231,12.0,-999.0,69,-99.99,,,-99.99,,2013-06-12 04:42:00,
2013-06-12 00:52:00,54.0,45.0,30.02,SW,234,14.0,-999.0,71,-99.99,,,-99.99,,2013-06-12 04:52:00,
2013-06-12 01:02:00,54.0,46.0,30.03,WSW,242,14.0,-999.0,73,-99.99,,,-99.99,,2013-06-12 05:02:00,
2013-06-12 01:12:00,54.0,46.0,30.03,WSW,242,14.0,-999.0,73,-99.99,,,-99.99,,2013-06-12 05:12:00,
2013-06-12 01:22:00,53.0,45.0,30.03,SW,215,13.0,-999.0,74,-99.99,,,-99.99,,2013-06-12 05:22:00,
2013-06-12 01:32:00,53.0,46.0,30.03,WSW,255,11.0,-999.0,76,-99.99,,,-99.99,,2013-06-12 05:32:00,
2013-06-12 01:42:00,52.0,45.0,30.04,WSW,238,7.0,-999.0,77,-99.99,,,-99.99,,2013-06-12 05:42:00,
2013-06-12 01:52:00,52.0,45.0,30.04,WSW,238,7.0,-999.0,77,-99.99,,,-99.99,,2013-06-12 05:52:00,
2013-06-12 02:02:00,52.0,45.0,30.05,NNW,340,3.0,-999.0,78,-99.99,,,-99.99,,2013-06-12 06:02:00,
2013-06-12 02:12:00,52.0,45.0,30.05,NNW,340,3.0,-999.0,78,-99.99,,,-99.99,,2013-06-12 06:12:00,
2013-06-12 02:22:00,52.0,46.0,30.05,WSW,243,1.0,-999.0,79,-99.99,,,-99.99,,2013-06-12 06:22:00,
2013-06-12 02:32:00,51.0,45.0,30.05,WSW,237,4.0,-999.0,80,-99.99,,,-99.99,,2013-06-12 06:32:00,
2013-06-12 02:42:00,51.0,45.0,30.05,WSW,237,4.0,-999.0,80,-99.99,,,-99.99,,2013-06-12 06:42:00,
2013-06-12 02:52:00,51.0,45.0,30.05,SSW,212,6.0,-999.0,81,-99.99,,,-99.99,,2013-06-12 06:52:00,
2013-06-12 03:02:00,50.0,45.0,30.05,WSW,239,6.0,-999.0,82,-99.99,,,-99.99,,2013-06-12 07:02:00,
2013-06-12 03:12:00,50.0,45.0,30.05,WSW,239,6.0,-999.0,82,-99.99,,,-99.99,,2013-06-12 07:12:00,
2013-06-12 03:22:00,50.0,45.0,30.05,SW,233,7.0,-999.0,83,-99.99,,,-99.99,,2013-06-12 07:22:00,
2013-06-12 03:33:00,49.0,45.0,30.05,SSW,200,7.0,-999.0,85,-99.99,,,-99.99,,2013-06-12 07:33:00,
2013-06-12 03:43:00,49.0,45.0,30.05,SW,224,5.0,-999.0,86,-99.99,,,-99.99,,2013-06-12 07:43:00,
2013-06-12 03:53:00,49.0,45.0,30.05,SW,224,5.0,-999.0,86,-99.99,,,-99.99,,2013-06-12 07:53:00,
2013-06-12 04:02:00,49.0,45.0,30.06,SW,231,3.0,-999.0,87,-99.99,,,-99.99,,2013-06-12 08:02:00,
2013-06-12 04:11:00,49.0,45.0,30.06,SW,231,3.0,-999.0,87,-99.99,,,-99.99,,2013-06-12 08:11:00,
2013-06-12 04:22:00,48.0,45.0,30.06,SW,231,5.0,-999.0,88,-99.99,,,-99.99,,2013-06-12 08:22:00,
2013-06-12 04:33:00,48.0,45.0,30.06,SW,230,5.0,-999.0,89,-99.99,,,-99.99,,2013-06-12 08:33:00,
2013-06-12 04:42:00,48.0,45.0,30.06,WSW,240,7.0,-999.0,89,-99.99,,,-99.99,,2013-06-12 08:42:00,
2013-06-12 04:53:00,48.0,45.0,30.06,WSW,240,7.0,-999.0,89,-99.99,,,-99.99,,2013-06-12 08:53:00,
2013-06-12 05:01:00,48.0,45.0,30.06,SW,232,6.0,-999.0,90,-99.99,,,-99.99,,2013-06-12 09:01:00,
2013-06-12 05:11:00,48.0,45.0,30.06,SW,236,4.0,-999.0,91,-99.99,,,-99.99,,2013-06-12 09:11:00,
2013-06-12 05:22:00,48.0,45.0,30.06,SW,236,4.0,-999.0,91,-99.99,,,-99.99,,2013-06-12 09:22:00,
2013-06-12 05:33:00,47.0,45.0,30.06,SW,236,1.0,-999.0,91,-99.99,,,-99.99,,2013-06-12 09:33:00,
2013-06-12 05:42:00,47.0,45.0,30.06,SW,236,0.0,-999.0,92,-99.99,,,-99.99,,2013-06-12 09:42:00,
2013-06-12 05:53:00,47.0,45.0,30.06,SW,236,0.0,-999.0,92,-99.99,,,-99.99,,2013-06-12 09:53:00,
2013-06-12 06:01:00,47.0,45.0,30.06,SW,236,1.0,-999.0,93,-99.99,,,-99.99,,2013-06-12 10:01:00,
2013-06-12 06:11:00,47.0,45.0,30.06,SW,236,1.0,-999.0,93,-99.99,,,-99.99,,2013-06-12 10:11:00,
2013-06-12 06:23:00,47.0,45.0,30.06,SW,236,0.0,-999.0,93,-99.99,,,-99.99,,2013-06-12 10:23:00,
2013-06-12 06:33:00,47.0,45.0,30.06,SW,236,0.0,-999.0,94,-99.99,,,-99.99,,2013-06-12 10:33:00,
2013-06-12 06:43:00,47.0,45.0,30.06,SW,236,0.0,-999.0,94,-99.99,,,-99.99,,2013-06-12 10:43:00,
2013-06-12 06:53:00,47.0,45.0,30.06,SW,236,0.0,-999.0,94,-99.99,,,-99.99,,2013-06-12 10:53:00,
2013-06-12 07:02:00,48.0,47.0,30.06,SW,236,0.0,-999.0,98,-99.99,,,-99.99,,2013-06-12 11:02:00,
2013-06-12 07:12:00,48.0,47.0,30.06,SW,236,0.0,-999.0,98,-99.99,,,-99.99,,2013-06-12 11:12:00,
2013-06-12 07:24:00,48.0,46.0,30.06,SW,236,0.0,-999.0,93,-99.99,,,-99.99,,2013-06-12 11:24:00,
2013-06-12 07:33:00,48.0,46.0,30.06,SW,236,1.0,-999.0,93,-99.99,,,-99.99,,2013-06-12 11:33:00,
2013-06-12 07:42:00,48.0,46.0,30.06,SW,236,1.0,-999.0,93,-99.99,,,-99.99,,2013-06-12 11:42:00,
2013-06-12 07:53:00,48.0,46.0,30.06,SW,236,1.0,-999.0,93,-99.99,,,-99.99,,2013-06-12 11:53:00,
2013-06-12 08:01:00,48.0,46.0,30.07,SSE,164,1.0,-999.0,93,-99.99,,,-99.99,,2013-06-12 12:01:00,
2013-06-12 08:11:00,48.0,46.0,30.07,SSE,164,1.0,-999.0,93,-99.99,,,-99.99,,2013-06-12 12:11:00,
2013-06-12 08:23:00,48.0,46.0,30.07,SW,234,1.0,-999.0,93,-99.99,,,-99.99,,2013-06-12 12:23:00,
2013-06-12 08:33:00,48.0,46.0,30.07,SW,234,1.0,-999.0,93,-99.99,,,-99.99,,2013-06-12 12:33:00,
2013-06-12 08:42:00,48.0,46.0,30.07,SW,223,3.0,-999.0,93,-99.99,,,-99.99,,2013-06-12 12:42:00,
2013-06-12 08:53:00,48.0,46.0,30.07,SW,223,3.0,-999.0,93,-99.99,,,-99.99,,2013-06-12 12:53:00,
2013-06-12 09:01:00,48.0,46.0,30.07,SW,223,3.0,-999.0,93,-99.99,,,-99.99,,2013-06-12 13:01:00,
2013-06-12 09:11:00,49.0,47.0,30.07,SW,225,4.0,-999.0,93,-99.99,,,-99.99,,2013-06-12 13:11:00,
2013-06-12 09:22:00,49.0,47.0,30.07,SW,226,5.0,-999.0,93,-99.99,,,-99.99,,2013-06-12 13:22:00,
2013-06-12 09:32:00,49.0,47.0,30.08,SW,223,5.0,-999.0,93,-99.99,,,-99.99,,2013-06-12 13:32:00,
2013-06-12 09:43:00,50.0,48.0,30.08,SW,225,2.0,-999.0,92,-99.99,,,-99.99,,2013-06-12 13:43:00,
2013-06-12 09:53:00,50.0,48.0,30.08,SW,225,2.0,-999.0,92,-99.99,,,-99.99,,2013-06-12 13:53:00,
2013-06-12 10:01:00,50.0,47.0,30.08,WSW,247,2.0,-999.0,91,-99.99,,,-99.99,,2013-06-12 14:01:00,
2013-06-12 10:11:00,50.0,47.0,30.08,WSW,247,2.0,-999.0,91,-99.99,,,-99.99,,2013-06-12 14:11:00,
2013-06-12 10:23:00,50.0,47.0,30.08,SSW,192,4.0,-999.0,90,-99.99,,,-99.99,,2013-06-12 14:23:00,
2013-06-12 10:33:00,50.0,47.0,30.08,SSW,192,4.0,-999.0,90,-99.99,,,-99.99,,2013-06-12 14:33:00,
2013-06-12 10:43:00,51.0,48.0,30.08,WSW,238,6.0,-999.0,89,-99.99,,,-99.99,,2013-06-12 14:43:00,
2013-06-12 10:53:00,51.0,48.0,30.08,WSW,238,6.0,-999.0,89,-99.99,,,-99.99,,2013-06-12 14:53:00,
2013-06-12 11:01:00,51.0,48.0,30.08,WSW,238,6.0,-999.0,89,-99.99,,,-99.99,,2013-06-12 15:01:00,
2013-06-12 11:11:00,51.0,48.0,30.08,WSW,238,6.0,-999.0,89,-99.99,,,-99.99,,2013-06-12 15:11:00,
2013-06-12 11:23:00,51.0,48.0,30.08,WSW,238,6.0,-999.0,89,-99.99,,,-99.99,,2013-06-12 15:23:00,
2013-06-12 11:33:00,53.0,49.0,30.08,SW,236,5.0,-999.0,85,-99.99,,,-99.99,,2013-06-12 15:33:00,
2013-06-12 11:43:00,53.0,49.0,30.08,SW,236,5.0,-999.0,85,-99.99,,,-99.99,,2013-06-12 15:43:00,
2013-06-12 11:52:00,53.0,49.0,30.08,SW,236,5.0,-999.0,85,-99.99,,,-99.99,,2013-06-12 15:52:00,
2013-06-12 12:01:00,56.0,50.0,30.08,WSW,244,7.0,-999.0,79,-99.99,,,-99.99,,2013-06-12 16:01:00,
2013-06-12 12:11:00,56.0,49.0,30.08,SW,221,9.0,-999.0,76,-99.99,,,-99.99,,2013-06-12 16:11:00,
2013-06-12 12:21:00,56.0,49.0,30.08,SW,221,9.0,-999.0,76,-99.99,,,-99.99,,2013-06-12 16:21:00,
2013-06-12 12:32:00,56.0,49.0,30.08,SW,221,9.0,-999.0,76,-99.99,,,-99.99,,2013-06-12 16:32:00,
2013-06-12 12:43:00,56.0,49.0,30.08,SW,221,9.0,-999.0,76,-99.99,,,-99.99,,2013-06-12 16:43:00,
2013-06-12 12:52:00,56.0,49.0,30.08,SW,221,9.0,-999.0,76,-99.99,,,-99.99,,2013-06-12 16:52:00,
2013-06-12 13:11:00,59.0,50.0,30.07,West,260,7.0,-999.0,71,-99.99,,,-99.99,,2013-06-12 17:11:00,
2013-06-12 13:22:00,59.0,50.0,30.07,West,260,7.0,-999.0,71,-99.99,,,-99.99,,2013-06-12 17:22:00,
2013-06-12 13:33:00,60.0,49.0,30.07,South,191,10.0,-999.0,66,-99.99,,,-99.99,,2013-06-12 17:33:00,
2013-06-12 13:42:00,60.0,49.0,30.07,South,191,10.0,-999.0,66,-99.99,,,-99.99,,2013-06-12 17:42:00,
2013-06-12 13:52:00,60.0,49.0,30.07,South,191,10.0,-999.0,66,-99.99,,,-99.99,,2013-06-12 17:52:00,
2013-06-12 14:02:00,61.0,48.0,30.07,SSE,165,9.0,-999.0,63,-99.99,,,-99.99,,2013-06-12 18:02:00,
2013-06-12 14:11:00,61.0,48.0,30.07,SSE,165,9.0,-999.0,63,-99.99,,,-99.99,,2013-06-12 18:11:00,
2013-06-12 14:22:00,61.0,48.0,30.07,SSE,165,9.0,-999.0,63,-99.99,,,-99.99,,2013-06-12 18:22:00,
2013-06-12 14:32:00,58.0,47.0,30.07,SW,235,5.0,-999.0,66,-99.99,,,-99.99,,2013-06-12 18:32:00,
2013-06-12 14:43:00,58.0,47.0,30.07,SW,235,5.0,-999.0,66,-99.99,,,-99.99,,2013-06-12 18:43:00,
2013-06-12 14:53:00,58.0,47.0,30.07,SW,235,5.0,-999.0,66,-99.99,,,-99.99,,2013-06-12 18:53:00,
2013-06-12 15:01:00,59.0,46.0,30.07,SSW,203,7.0,-999.0,63,-99.99,,,-99.99,,2013-06-12 19:01:00,
2013-06-12 15:11:00,59.0,46.0,30.07,SSW,203,7.0,-999.0,63,-99.99,,,-99.99,,2013-06-12 19:11:00,
2013-06-12 15:22:00,61.0,48.0,30.07,SW,221,6.0,-999.0,63,-99.99,,,-99.99,,2013-06-12 19:22:00,
2013-06-12 15:32:00,64.0,48.0,30.07,SSE,158,4.0,-999.0,57,-99.99,,,-99.99,,2013-06-12 19:32:00,
2013-06-12 15:42:00,64.0,48.0,30.07,SSE,158,4.0,-999.0,57,-99.99,,,-99.99,,2013-06-12 19:42:00,
2013-06-12 15:52:00,61.0,47.0,30.07,SW,224,9.0,-999.0,60,-99.99,,,-99.99,,2013-06-12 19:52:00,
2013-06-12 16:01:00,62.0,47.0,30.06,SW,232,8.0,-999.0,59,-99.99,,,-99.99,,2013-06-12 20:01:00,
2013-06-12 16:11:00,62.0,47.0,30.06,SW,232,8.0,-999.0,59,-99.99,,,-99.99,,2013-06-12 20:11:00,
2013-06-12 16:21:00,63.0,48.0,30.07,WSW,238,6.0,-999.0,59,-99.99,,,-99.99,,2013-06-12 20:21:00,
2013-06-12 16:32:00,65.0,47.0,30.06,SW,219,8.0,-999.0,53,-99.99,,,-99.99,,2013-06-12 20:32:00,
2013-06-12 16:42:00,65.0,47.0,30.06,SW,219,8.0,-999.0,53,-99.99,,,-99.99,,2013-06-12 20:42:00,
2013-06-12 16:54:00,64.0,48.0,30.06,SW,215,8.0,-999.0,56,-99.99,,,-99.99,,2013-06-12 20:54:00,
2013-06-12 17:01:00,62.0,47.0,30.06,West,262,9.0,-999.0,58,-99.99,,,-99.99,,2013-06-12 21:01:00,
2013-06-12 17:11:00,62.0,47.0,30.06,West,262,9.0,-999.0,58,-99.99,,,-99.99,,2013-06-12 21:11:00,
2013-06-12 17:21:00,64.0,47.0,30.07,WSW,240,8.0,-999.0,55,-99.99,,,-99.99,,2013-06-12 21:21:00,
2013-06-12 17:33:00,61.0,47.0,30.07,SW,229,12.0,-999.0,59,-99.99,,,-99.99,,2013-06-12 21:33:00,
2013-06-12 17:43:00,61.0,47.0,30.07,SW,229,12.0,-999.0,59,-99.99,,,-99.99,,2013-06-12 21:43:00,
2013-06-12 17:53:00,61.0,49.0,30.07,WSW,248,9.0,-999.0,64,-99.99,,,-99.99,,2013-06-12 21:53:00,
2013-06-12 18:01:00,64.0,51.0,30.07,WSW,252,10.0,-999.0,62,-99.99,,,-99.99,,2013-06-12 22:01:00,
2013-06-12 18:11:00,64.0,51.0,30.07,WSW,252,10.0,-999.0,62,-99.99,,,-99.99,,2013-06-12 22:11:00,
2013-06-12 18:22:00,64.0,49.0,30.07,SW,225,11.0,-999.0,58,-99.99,,,-99.99,,2013-06-12 22:22:00,
2013-06-12 18:32:00,64.0,49.0,30.07,SW,225,11.0,-999.0,58,-99.99,,,-99.99,,2013-06-12 22:32:00,
2013-06-12 18:43:00,64.0,49.0,30.07,SW,225,11.0,-999.0,58,-99.99,,,-99.99,,2013-06-12 22:43:00,
2013-06-12 18:52:00,64.0,49.0,30.07,SW,225,11.0,-999.0,58,-99.99,,,-99.99,,2013-06-12 22:52:00,
2013-06-12 19:01:00,63.0,47.0,30.07,South,183,12.0,-999.0,56,-99.99,,,-99.99,,2013-06-12 23:01:00,
2013-06-12 19:11:00,63.0,47.0,30.07,South,183,12.0,-999.0,56,-99.99,,,-99.99,,2013-06-12 23:11:00,
2013-06-12 19:22:00,63.0,45.0,30.07,SSW,202,12.0,-999.0,52,-99.99,,,-99.99,,2013-06-12 23:22:00,
2013-06-12 19:32:00,63.0,45.0,30.07,SSW,202,12.0,-999.0,52,-99.99,,,-99.99,,2013-06-12 23:32:00,
2013-06-12 19:42:00,63.0,45.0,30.07,SSW,202,12.0,-999.0,52,-99.99,,,-99.99,,2013-06-12 23:42:00,
2013-06-12 19:52:00,63.0,45.0,30.07,SSW,202,12.0,-999.0,52,-99.99,,,-99.99,,2013-06-12 23:52:00,
2013-06-12 20:01:00,61.0,45.0,30.07,SSW,211,15.0,-999.0,55,-99.99,,,-99.99,,2013-06-13 00:01:00,
2013-06-12 20:11:00,61.0,45.0,30.07,SSW,211,15.0,-999.0,55,-99.99,,,-99.99,,2013-06-13 00:11:00,
2013-06-12 20:22:00,60.0,46.0,30.08,SW,226,11.0,-999.0,60,-99.99,,,-99.99,,2013-06-13 00:22:00,
2013-06-12 20:32:00,59.0,46.0,30.08,WSW,245,12.0,-999.0,63,-99.99,,,-99.99,,2013-06-13 00:32:00,
2013-06-12 20:42:00,59.0,46.0,30.08,WSW,245,12.0,-999.0,63,-99.99,,,-99.99,,2013-06-13 00:42:00,
2013-06-12 20:52:00,59.0,46.0,30.08,WSW,245,12.0,-999.0,63,-99.99,,,-99.99,,2013-06-13 00:52:00,
2013-06-12 21:01:00,57.0,49.0,30.07,SW,229,8.0,-999.0,75,-99.99,,,-99.99,,2013-06-13 01:01:00,
2013-06-12 21:11:00,57.0,49.0,30.07,SW,229,8.0,-999.0,75,-99.99,,,-99.99,,2013-06-13 01:11:00,
2013-06-12 21:22:00,58.0,48.0,30.07,SW,234,10.0,-999.0,70,-99.99,,,-99.99,,2013-06-13 01:22:00,
2013-06-12 21:32:00,58.0,48.0,30.07,SW,234,10.0,-999.0,70,-99.99,,,-99.99,,2013-06-13 01:32:00,
2013-06-12 21:42:00,59.0,48.0,30.06,WSW,238,9.0,-999.0,67,-99.99,,,-99.99,,2013-06-13 01:42:00,
2013-06-12 21:53:00,59.0,47.0,30.06,WSW,240,10.0,-999.0,64,-99.99,,,-99.99,,2013-06-13 01:53:00,
2013-06-12 22:01:00,60.0,48.0,30.07,SW,234,8.0,-999.0,65,-99.99,,,-99.99,,2013-06-13 02:01:00,
2013-06-12 22:11:00,60.0,48.0,30.07,SW,234,8.0,-999.0,65,-99.99,,,-99.99,,2013-06-13 02:11:00,
2013-06-12 22:22:00,58.0,47.0,30.07,SW,234,10.0,-999.0,67,-99.99,,,-99.99,,2013-06-13 02:22:00,
2013-06-12 22:32:00,58.0,47.0,30.07,SW,232,10.0,-999.0,67,-99.99,,,-99.99,,2013-06-13 02:32:00,
2013-06-12 22:42:00,58.0,47.0,30.07,SW,232,10.0,-999.0,67,-99.99,,,-99.99,,2013-06-13 02:42:00,
2013-06-12 22:52:00,58.0,47.0,30.07,SW,232,10.0,-999.0,67,-99.99,,,-99.99,,2013-06-13 02:52:00,
2013-06-12 23:01:00,58.0,47.0,30.07,SW,232,10.0,-999.0,67,-99.99,,,-99.99,,2013-06-13 03:01:00,
2013-06-12 23:11:00,58.0,47.0,30.07,SW,232,10.0,-999.0,67,-99.99,,,-99.99,,2013-06-13 03:11:00,
2013-06-12 23:43:00,57.0,48.0,30.08,SW,225,7.0,-999.0,72,-99.99,,,-99.99,,2013-06-13 03:43:00,
2013-06-12 23:52:00,56.0,48.0,30.08,South,186,7.0,-999.0,74,-99.99,,,-99.99,,2013-06-13 03:52:00,